| time (UTC) | temp C | wind direction | speed KPH | gust KPH | rain 1hr cm | rain 24hr cm | rain mn cm | humidity % | barometer mb |
| 20260508023437 | 8 | 326 | 0.0 | 1.6 | 0.00 | 0.08 | 0.08 | 55 | 1016.0 |
| 20260508022935 | 8 | 331 | 3.2 | 4.8 | 0.00 | 0.08 | 0.08 | 54 | 1015.9 |
| 20260508022430 | 8 | 355 | 4.8 | 6.4 | 0.00 | 0.08 | 0.08 | 54 | 1015.8 |
| 20260508021927 | 9 | 339 | 1.6 | 4.8 | 0.00 | 0.08 | 0.08 | 53 | 1016.0 |
| 20260508021424 | 9 | 322 | 1.6 | 4.8 | 0.00 | 0.08 | 0.08 | 52 | 1015.7 |
| 20260508020919 | 9 | 330 | 3.2 | 4.8 | 0.00 | 0.08 | 0.08 | 51 | 1015.7 |
| 20260508020418 | 9 | 335 | 6.4 | 6.4 | 0.00 | 0.08 | 0.08 | 50 | 1015.4 |
| 20260508015914 | 9 | 326 | 6.4 | 9.7 | 0.00 | 0.08 | 0.08 | 49 | 1015.6 |
| 20260508015412 | 10 | 324 | 3.2 | 3.2 | 0.00 | 0.08 | 0.08 | 50 | 1015.4 |
| 20260508014908 | 10 | 335 | 6.4 | 6.4 | 0.00 | 0.08 | 0.08 | 48 | 1015.4 |
| 20260508014406 | 10 | 329 | 4.8 | 12.9 | 0.00 | 0.08 | 0.08 | 46 | 1015.3 |
| 20260508013902 | 10 | 331 | 3.2 | 9.7 | 0.00 | 0.08 | 0.08 | 47 | 1015.1 |
| 20260508013357 | 10 | 327 | 9.7 | 14.5 | 0.00 | 0.08 | 0.08 | 47 | 1015.1 |
| 20260508012855 | 10 | 307 | 3.2 | 11.3 | 0.00 | 0.08 | 0.08 | 47 | 1015.0 |
| 20260508012352 | 10 | 334 | 4.8 | 11.3 | 0.00 | 0.08 | 0.08 | 48 | 1014.9 |
| 20260508011850 | 10 | 319 | 1.6 | 9.7 | 0.00 | 0.08 | 0.08 | 49 | 1015.0 |
| 20260508011347 | 10 | 315 | 6.4 | 9.7 | 0.00 | 0.08 | 0.08 | 48 | 1014.9 |
| 20260508010844 | 10 | 340 | 6.4 | 14.5 | 0.00 | 0.08 | 0.08 | 49 | 1014.9 |
| 20260508010342 | 11 | 333 | 6.4 | 9.7 | 0.00 | 0.08 | 0.08 | 49 | 1014.8 |
| 20260508005839 | 11 | 318 | 4.8 | 9.7 | 0.00 | 0.08 | 0.08 | 48 | 1014.9 |
| 20260508005335 | 11 | 333 | 14.5 | 16.1 | 0.00 | 0.08 | 0.08 | 47 | 1014.7 |
| 20260508004831 | 11 | 327 | 6.4 | 11.3 | 0.00 | 0.08 | 0.08 | 50 | 1014.8 |
| 20260508004328 | 11 | 333 | 3.2 | 11.3 | 0.00 | 0.08 | 0.08 | 49 | 1014.5 |
| 20260508003824 | 11 | 331 | 3.2 | 6.4 | 0.00 | 0.08 | 0.08 | 50 | 1014.4 |
| 20260508003322 | 11 | 331 | 8.0 | 11.3 | 0.00 | 0.08 | 0.08 | 50 | 1014.2 |
| 20260508002819 | 11 | 319 | 4.8 | 9.7 | 0.00 | 0.08 | 0.08 | 50 | 1014.3 |
| 20260508002315 | 11 | 327 | 3.2 | 4.8 | 0.00 | 0.08 | 0.08 | 49 | 1014.4 |
| 20260508001811 | 11 | 330 | 4.8 | 6.4 | 0.00 | 0.08 | 0.08 | 49 | 1014.1 |
| 20260508001307 | 12 | 316 | 4.8 | 12.9 | 0.00 | 0.08 | 0.08 | 47 | 1013.9 |
| 20260508000803 | 12 | 341 | 4.8 | 14.5 | 0.00 | 0.08 | 0.08 | 47 | 1013.9 |
| 20260508000300 | 12 | 305 | 4.8 | 9.7 | 0.00 | 0.08 | 0.08 | 46 | 1013.9 |
| 20260507235757 | 12 | 321 | 6.4 | 12.9 | 0.00 | 0.08 | 0.08 | 45 | 1013.9 |
| 20260507235255 | 13 | 304 | 6.4 | 9.7 | 0.00 | 0.08 | 0.08 | 44 | 1013.7 |
| 20260507234751 | 13 | 292 | 3.2 | 9.7 | 0.00 | 0.08 | 0.08 | 45 | 1013.7 |
| 20260507234248 | 13 | 307 | 3.2 | 6.4 | 0.00 | 0.08 | 0.08 | 48 | 1013.7 |
| 20260507233744 | 13 | 322 | 8.0 | 9.7 | 0.00 | 0.08 | 0.08 | 44 | 1013.7 |
| 20260507233242 | 13 | 314 | 3.2 | 6.4 | 0.00 | 0.08 | 0.08 | 46 | 1013.7 |
| 20260507232740 | 13 | 320 | 9.7 | 12.9 | 0.00 | 0.08 | 0.08 | 45 | 1013.6 |
| 20260507232237 | 12 | 322 | 4.8 | 6.4 | 0.00 | 0.08 | 0.08 | 47 | 1013.6 |
| 20260507231733 | 12 | 315 | 4.8 | 6.4 | 0.00 | 0.08 | 0.08 | 49 | 1013.6 |
| 20260507231230 | 13 | 317 | 6.4 | 11.3 | 0.00 | 0.08 | 0.08 | 47 | 1013.4 |
| 20260507230726 | 13 | 323 | 8.0 | 11.3 | 0.00 | 0.08 | 0.08 | 46 | 1013.6 |
| 20260507230224 | 13 | 303 | 6.4 | 11.3 | 0.00 | 0.08 | 0.08 | 46 | 1013.5 |
| 20260507225723 | 13 | 335 | 4.8 | 9.7 | 0.00 | 0.08 | 0.08 | 46 | 1013.4 |
| 20260507225220 | 13 | 339 | 4.8 | 11.3 | 0.00 | 0.08 | 0.08 | 47 | 1013.3 |
| 20260507224716 | 13 | 314 | 4.8 | 16.1 | 0.00 | 0.08 | 0.08 | 45 | 1013.5 |
| 20260507224213 | 13 | 298 | 12.9 | 17.7 | 0.00 | 0.08 | 0.08 | 44 | 1013.4 |
| 20260507223709 | 13 | 325 | 9.7 | 14.5 | 0.00 | 0.08 | 0.08 | 46 | 1013.6 |
| 20260507223206 | 14 | 293 | 6.4 | 12.9 | 0.00 | 0.08 | 0.08 | 43 | 1013.4 |
| 20260507222702 | 13 | 312 | 6.4 | 14.5 | 0.00 | 0.08 | 0.08 | 44 | 1013.4 |
| 20260507222159 | 13 | 297 | 12.9 | 20.9 | 0.00 | 0.08 | 0.08 | 46 | 1013.2 |
| 20260507221655 | 13 | 320 | 6.4 | 12.9 | 0.00 | 0.08 | 0.08 | 47 | 1013.2 |
| 20260507221151 | 15 | 315 | 11.3 | 12.9 | 0.00 | 0.08 | 0.08 | 44 | 1013.0 |
| 20260507220649 | 15 | 265 | 4.8 | 22.5 | 0.00 | 0.08 | 0.08 | 45 | 1013.1 |
| 20260507220147 | 15 | 309 | 9.7 | 17.7 | 0.00 | 0.08 | 0.08 | 41 | 1013.0 |
| 20260507215642 | 15 | 342 | 4.8 | 12.9 | 0.00 | 0.08 | 0.08 | 43 | 1013.0 |
| 20260507215140 | 14 | 290 | 4.8 | 11.3 | 0.00 | 0.08 | 0.08 | 48 | 1013.1 |
| 20260507214637 | 15 | 307 | 11.3 | 14.5 | 0.00 | 0.08 | 0.08 | 45 | 1012.8 |
| 20260507214134 | 15 | 329 | 6.4 | 12.9 | 0.00 | 0.08 | 0.08 | 44 | 1012.9 |
| 20260507213630 | 15 | 31 | 6.4 | 11.3 | 0.00 | 0.08 | 0.08 | 48 | 1012.9 |
| 20260507213127 | 14 | 313 | 9.7 | 11.3 | 0.00 | 0.08 | 0.08 | 49 | 1013.0 |
| 20260507212623 | 13 | 336 | 12.9 | 16.1 | 0.00 | 0.08 | 0.08 | 49 | 1012.7 |
| 20260507212120 | 14 | 25 | 9.7 | 16.1 | 0.00 | 0.08 | 0.08 | 50 | 1012.6 |
| 20260507211617 | 15 | 302 | 9.7 | 20.9 | 0.00 | 0.08 | 0.08 | 45 | 1012.8 |
| 20260507211113 | 15 | 304 | 6.4 | 12.9 | 0.00 | 0.08 | 0.08 | 48 | 1012.6 |
| 20260507210611 | 14 | 315 | 11.3 | 14.5 | 0.00 | 0.08 | 0.08 | 48 | 1012.8 |
| 20260507210107 | 14 | 301 | 9.7 | 16.1 | 0.00 | 0.08 | 0.08 | 48 | 1012.7 |
| 20260507205604 | 14 | 325 | 8.0 | 12.9 | 0.00 | 0.08 | 0.08 | 47 | 1012.6 |
| 20260507205100 | 13 | 295 | 12.9 | 20.9 | 0.00 | 0.08 | 0.08 | 45 | 1012.7 |
| 20260507204556 | 14 | 306 | 11.3 | 17.7 | 0.00 | 0.08 | 0.08 | 50 | 1012.7 |
| 20260507204054 | 15 | 313 | 8.0 | 11.3 | 0.00 | 0.08 | 0.08 | 46 | 1012.6 |
| 20260507203552 | 15 | 321 | 6.4 | 9.7 | 0.00 | 0.08 | 0.08 | 49 | 1012.2 |
| 20260507203049 | 14 | 319 | 3.2 | 12.9 | 0.00 | 0.08 | 0.08 | 44 | 1012.3 |
| 20260507202544 | 15 | 327 | 9.7 | 11.3 | 0.00 | 0.08 | 0.08 | 48 | 1012.7 |
| 20260507202041 | 15 | 318 | 3.2 | 6.4 | 0.00 | 0.08 | 0.08 | 52 | 1012.8 |
| 20260507201536 | 15 | 8 | 8.0 | 16.1 | 0.00 | 0.08 | 0.08 | 49 | 1012.7 |
| 20260507201033 | 15 | 312 | 8.0 | 16.1 | 0.00 | 0.08 | 0.08 | 47 | 1012.8 |
| 20260507200528 | 14 | 324 | 12.9 | 20.9 | 0.00 | 0.08 | 0.08 | 48 | 1012.9 |
| 20260507200025 | 15 | 339 | 9.7 | 20.9 | 0.00 | 0.08 | 0.08 | 49 | 1012.9 |
| 20260507195522 | 13 | 301 | 9.7 | 17.7 | 0.00 | 0.08 | 0.08 | 46 | 1013.0 |
| 20260507195020 | 15 | 307 | 9.7 | 12.9 | 0.00 | 0.08 | 0.08 | 45 | 1013.1 |
| 20260507194516 | 15 | 349 | 3.2 | 6.4 | 0.00 | 0.08 | 0.08 | 51 | 1013.1 |
| 20260507194012 | 15 | 292 | 4.8 | 12.9 | 0.00 | 0.08 | 0.08 | 49 | 1013.2 |
| 20260507193509 | 15 | 325 | 9.7 | 16.1 | 0.00 | 0.08 | 0.08 | 47 | 1013.1 |
| 20260507193006 | 15 | 306 | 6.4 | 12.9 | 0.00 | 0.08 | 0.08 | 48 | 1013.2 |
| 20260507192502 | 13 | 317 | 9.7 | 12.9 | 0.00 | 0.08 | 0.08 | 51 | 1013.3 |
| 20260507191959 | 13 | 308 | 11.3 | 20.9 | 0.00 | 0.08 | 0.08 | 51 | 1013.3 |
| 20260507191454 | 13 | 329 | 8.0 | 12.9 | 0.00 | 0.08 | 0.08 | 49 | 1013.2 |
| 20260507190952 | 14 | 277 | 12.9 | 16.1 | 0.00 | 0.08 | 0.08 | 49 | 1013.2 |
| 20260507190449 | 15 | 207 | 4.8 | 6.4 | 0.00 | 0.08 | 0.08 | 50 | 1013.2 |
| 20260507185948 | 13 | 169 | 8.0 | 14.5 | 0.00 | 0.08 | 0.08 | 47 | 1013.4 |
| 20260507185445 | 15 | 279 | 14.5 | 22.5 | 0.00 | 0.08 | 0.08 | 44 | 1013.1 |
| 20260507184941 | 14 | 344 | 11.3 | 14.5 | 0.00 | 0.08 | 0.08 | 51 | 1013.1 |
| 20260507184439 | 14 | 259 | 3.2 | 16.1 | 0.00 | 0.08 | 0.08 | 46 | 1013.2 |
| 20260507183937 | 15 | 316 | 8.0 | 14.5 | 0.00 | 0.08 | 0.08 | 47 | 1013.5 |
| 20260507183434 | 14 | 21 | 4.8 | 12.9 | 0.00 | 0.08 | 0.08 | 47 | 1013.4 |
| 20260507182931 | 14 | 261 | 6.4 | 11.3 | 0.00 | 0.08 | 0.08 | 48 | 1013.3 |
| 20260507182427 | 15 | 245 | 6.4 | 12.9 | 0.00 | 0.08 | 0.08 | 52 | 1013.3 |
| 20260507181923 | 14 | 314 | 11.3 | 16.1 | 0.00 | 0.08 | 0.08 | 49 | 1013.4 |
| 20260507181419 | 13 | 327 | 8.0 | 14.5 | 0.00 | 0.08 | 0.08 | 52 | 1013.6 |
| 20260507180916 | 14 | 14 | 8.0 | 9.7 | 0.00 | 0.08 | 0.08 | 53 | 1013.5 |
| 20260507180413 | 15 | 333 | 8.0 | 20.9 | 0.00 | 0.08 | 0.08 | 55 | 1013.4 |
| 20260507175909 | 14 | 15 | 17.7 | 22.5 | 0.00 | 0.08 | 0.08 | 51 | 1013.5 |
| 20260507175406 | 14 | 319 | 1.6 | 6.4 | 0.00 | 0.08 | 0.08 | 51 | 1013.6 |
| 20260507174903 | 14 | 345 | 14.5 | 16.1 | 0.00 | 0.08 | 0.08 | 54 | 1013.6 |
| 20260507174400 | 14 | 2 | 11.3 | 14.5 | 0.00 | 0.08 | 0.08 | 54 | 1013.5 |
| 20260507173858 | 13 | 333 | 9.7 | 11.3 | 0.00 | 0.08 | 0.08 | 57 | 1013.7 |
| 20260507173355 | 13 | 284 | 9.7 | 12.9 | 0.00 | 0.08 | 0.08 | 50 | 1013.7 |
| 20260507172851 | 13 | 308 | 4.8 | 11.3 | 0.00 | 0.08 | 0.08 | 49 | 1013.9 |
| 20260507172348 | 13 | 26 | 4.8 | 6.4 | 0.00 | 0.08 | 0.08 | 51 | 1014.0 |
| 20260507171844 | 14 | 311 | 14.5 | 16.1 | 0.00 | 0.08 | 0.08 | 47 | 1013.9 |
| 20260507171341 | 14 | 18 | 3.2 | 11.3 | 0.00 | 0.08 | 0.08 | 59 | 1014.1 |
| 20260507170838 | 13 | 312 | 4.8 | 14.5 | 0.00 | 0.08 | 0.08 | 54 | 1014.1 |
| 20260507170334 | 13 | 278 | 1.6 | 9.7 | 0.00 | 0.08 | 0.08 | 50 | 1014.1 |
| 20260507165830 | 13 | 321 | 9.7 | 17.7 | 0.00 | 0.08 | 0.08 | 57 | 1014.2 |
| 20260507165326 | 12 | 304 | 6.4 | 9.7 | 0.00 | 0.08 | 0.08 | 59 | 1014.2 |
| 20260507164823 | 13 | 359 | 4.8 | 14.5 | 0.00 | 0.08 | 0.08 | 60 | 1014.5 |
| 20260507164320 | 13 | 336 | 8.0 | 20.9 | 0.00 | 0.08 | 0.08 | 59 | 1014.2 |
| 20260507163817 | 13 | 333 | 8.0 | 12.9 | 0.00 | 0.08 | 0.08 | 54 | 1014.4 |
| 20260507163314 | 13 | 345 | 6.4 | 11.3 | 0.00 | 0.08 | 0.08 | 56 | 1014.7 |
| 20260507162810 | 12 | 272 | 3.2 | 11.3 | 0.00 | 0.08 | 0.08 | 55 | 1014.7 |
| 20260507162307 | 12 | 307 | 3.2 | 12.9 | 0.00 | 0.08 | 0.08 | 52 | 1014.7 |
| 20260507161804 | 12 | 343 | 8.0 | 16.1 | 0.00 | 0.08 | 0.08 | 54 | 1014.7 |
| 20260507161300 | 12 | 317 | 6.4 | 9.7 | 0.00 | 0.08 | 0.08 | 59 | 1014.9 |
| 20260507160756 | 12 | 326 | 9.7 | 17.7 | 0.00 | 0.08 | 0.08 | 60 | 1014.8 |
| 20260507160252 | 12 | 322 | 4.8 | 11.3 | 0.00 | 0.08 | 0.08 | 62 | 1014.8 |
| 20260507155748 | 12 | 62 | 4.8 | 6.4 | 0.00 | 0.08 | 0.08 | 60 | 1014.9 |
| 20260507155244 | 12 | 323 | 6.4 | 12.9 | 0.00 | 0.08 | 0.08 | 60 | 1014.9 |
| 20260507154741 | 12 | 292 | 4.8 | 11.3 | 0.00 | 0.08 | 0.08 | 57 | 1014.8 |
| 20260507154239 | 13 | 316 | 3.2 | 4.8 | 0.00 | 0.08 | 0.08 | 58 | 1015.1 |
| 20260507153735 | 12 | 331 | 3.2 | 6.4 | 0.00 | 0.08 | 0.08 | 63 | 1014.9 |
| 20260507153232 | 12 | 334 | 3.2 | 6.4 | 0.00 | 0.08 | 0.08 | 66 | 1015.0 |
| 20260507152728 | 12 | 257 | 0.0 | 4.8 | 0.00 | 0.08 | 0.08 | 60 | 1014.7 |
| 20260507152225 | 12 | 67 | 0.0 | 6.4 | 0.00 | 0.08 | 0.08 | 61 | 1014.8 |
| 20260507151721 | 11 | 329 | 6.4 | 12.9 | 0.00 | 0.08 | 0.08 | 66 | 1015.0 |
| 20260507151218 | 12 | 5 | 3.2 | 3.2 | 0.00 | 0.08 | 0.08 | 67 | 1015.0 |
| 20260507150714 | 12 | 138 | 0.0 | 4.8 | 0.00 | 0.08 | 0.08 | 61 | 1015.2 |
| 20260507150211 | 12 | 7 | 0.0 | 4.8 | 0.00 | 0.08 | 0.08 | 59 | 1015.1 |
| 20260507145707 | 11 | 248 | 1.6 | 6.4 | 0.00 | 0.08 | 0.08 | 63 | 1015.1 |
| 20260507145204 | 11 | 277 | 1.6 | 11.3 | 0.00 | 0.08 | 0.08 | 65 | 1015.2 |
| 20260507144700 | 11 | 306 | 6.4 | 11.3 | 0.00 | 0.08 | 0.08 | 65 | 1015.3 |
| 20260507144159 | 11 | 303 | 3.2 | 9.7 | 0.00 | 0.08 | 0.08 | 70 | 1015.2 |
| 20260507143655 | 12 | 15 | 3.2 | 3.2 | 0.00 | 0.08 | 0.08 | 66 | 1015.4 |
| 20260507143152 | 11 | 296 | 1.6 | 4.8 | 0.00 | 0.08 | 0.08 | 65 | 1015.7 |
| 20260507142648 | 10 | 320 | 8.0 | 9.7 | 0.00 | 0.08 | 0.08 | 72 | 1015.7 |
| 20260507142145 | 11 | 335 | 4.8 | 6.4 | 0.00 | 0.08 | 0.08 | 71 | 1015.7 |
| 20260507141641 | 12 | 304 | 6.4 | 6.4 | 0.00 | 0.08 | 0.08 | 76 | 1015.7 |
| 20260507141138 | 11 | 215 | 8.0 | 9.7 | 0.00 | 0.08 | 0.08 | 73 | 1015.8 |
| 20260507140634 | 10 | 283 | 3.2 | 3.2 | 0.00 | 0.08 | 0.08 | 81 | 1016.0 |
| 20260507140132 | 11 | 269 | 0.0 | 3.2 | 0.00 | 0.08 | 0.08 | 78 | 1015.9 |
| 20260507135629 | 12 | 242 | 3.2 | 6.4 | 0.00 | 0.08 | 0.08 | 77 | 1016.1 |
| 20260507135126 | 11 | 291 | 0.0 | 0.0 | 0.00 | 0.08 | 0.08 | 76 | 1016.1 |
| 20260507134622 | 10 | 292 | 0.0 | 0.0 | 0.00 | 0.08 | 0.08 | 83 | 1016.2 |
| 20260507134119 | 10 | 260 | 1.6 | 4.8 | 0.00 | 0.08 | 0.08 | 84 | 1016.1 |
| 20260507133614 | 11 | 267 | 3.2 | 4.8 | 0.00 | 0.08 | 0.08 | 85 | 1016.3 |
| 20260507133112 | 10 | 221 | 0.0 | 3.2 | 0.00 | 0.08 | 0.08 | 86 | 1016.0 |
| 20260507132609 | 9 | 283 | 0.0 | 0.0 | 0.00 | 0.08 | 0.08 | 91 | 1016.2 |
| 20260507132105 | 9 | 271 | 1.6 | 3.2 | 0.00 | 0.08 | 0.08 | 94 | 1016.2 |
| 20260507131602 | 9 | 227 | 3.2 | 3.2 | 0.00 | 0.08 | 0.08 | 94 | 1016.2 |
| 20260507131100 | 8 | 260 | 1.6 | 1.6 | 0.00 | 0.08 | 0.08 | 93 | 1016.2 |
| 20260507130556 | 8 | 261 | 1.6 | 3.2 | 0.00 | 0.08 | 0.08 | 94 | 1016.2 |
| 20260507130054 | 8 | 218 | 3.2 | 3.2 | 0.00 | 0.08 | 0.08 | 94 | 1016.3 |
| 20260507125553 | 8 | 270 | 0.0 | 0.0 | 0.00 | 0.08 | 0.08 | 96 | 1016.3 |
| 20260507125050 | 8 | 270 | 0.0 | 0.0 | 0.00 | 0.08 | 0.08 | 97 | 1016.4 |
| 20260507124546 | 8 | 271 | 0.0 | 0.0 | 0.00 | 0.08 | 0.08 | 97 | 1016.2 |
| 20260507124044 | 8 | 263 | 0.0 | 0.0 | 0.00 | 0.08 | 0.08 | 97 | 1016.2 |
| 20260507123542 | 8 | 226 | 0.0 | 3.2 | 0.00 | 0.08 | 0.08 | 97 | 1016.3 |
| 20260507123038 | 8 | 283 | 0.0 | 0.0 | 0.00 | 0.08 | 0.08 | 97 | 1016.5 |
| 20260507122534 | 8 | 311 | 0.0 | 0.0 | 0.00 | 0.08 | 0.08 | 97 | 1016.5 |
| 20260507122030 | 8 | 312 | 0.0 | 0.0 | 0.00 | 0.08 | 0.08 | 97 | 1016.3 |
| 20260507121525 | 8 | 349 | 0.0 | 0.0 | 0.00 | 0.08 | 0.08 | 97 | 1016.3 |
| 20260507121021 | 7 | 349 | 0.0 | 0.0 | 0.00 | 0.08 | 0.08 | 97 | 1016.2 |
| 20260507120518 | 7 | 349 | 0.0 | 0.0 | 0.00 | 0.08 | 0.08 | 97 | 1016.2 |
| 20260507120015 | 7 | 352 | 0.0 | 0.0 | 0.00 | 0.08 | 0.08 | 98 | 1016.0 |
| 20260507115511 | 7 | 352 | 0.0 | 0.0 | 0.00 | 0.08 | 0.08 | 98 | 1016.2 |
| 20260507115007 | 7 | 352 | 0.0 | 0.0 | 0.00 | 0.08 | 0.08 | 98 | 1016.0 |
| 20260507114503 | 7 | 352 | 0.0 | 0.0 | 0.00 | 0.08 | 0.08 | 98 | 1016.0 |
| 20260507114000 | 7 | 352 | 0.0 | 0.0 | 0.00 | 0.08 | 0.08 | 98 | 1015.9 |
| 20260507113458 | 7 | 353 | 0.0 | 0.0 | 0.00 | 0.08 | 0.08 | 98 | 1015.8 |
| 20260507112955 | 7 | 354 | 0.0 | 0.0 | 0.00 | 0.08 | 0.08 | 98 | 1016.0 |
| 20260507112452 | 7 | 357 | 0.0 | 0.0 | 0.00 | 0.08 | 0.08 | 98 | 1015.9 |
| 20260507111949 | 7 | 355 | 0.0 | 0.0 | 0.00 | 0.08 | 0.08 | 98 | 1015.5 |
| 20260507111446 | 7 | 1 | 0.0 | 0.0 | 0.00 | 0.08 | 0.08 | 98 | 1015.8 |
| 20260507110942 | 7 | 2 | 0.0 | 0.0 | 0.00 | 0.08 | 0.08 | 99 | 1015.8 |
| 20260507110439 | 7 | 1 | 0.0 | 0.0 | 0.00 | 0.08 | 0.08 | 99 | 1015.6 |
| 20260507105935 | 7 | 1 | 0.0 | 0.0 | 0.00 | 0.08 | 0.08 | 99 | 1015.6 |
| 20260507105432 | 7 | 1 | 0.0 | 0.0 | 0.00 | 0.08 | 0.08 | 99 | 1015.5 |
| 20260507104929 | 7 | 1 | 0.0 | 0.0 | 0.00 | 0.08 | 0.08 | 99 | 1015.5 |
| 20260507104426 | 7 | 1 | 0.0 | 0.0 | 0.00 | 0.08 | 0.08 | 99 | 1015.5 |
| 20260507103921 | 7 | 1 | 0.0 | 0.0 | 0.00 | 0.08 | 0.08 | 99 | 1015.4 |
| 20260507103418 | 7 | 356 | 0.0 | 0.0 | 0.00 | 0.08 | 0.08 | 99 | 1015.3 |
| 20260507102914 | 7 | 356 | 0.0 | 0.0 | 0.00 | 0.08 | 0.08 | 99 | 1015.4 |
| 20260507102411 | 7 | 18 | 0.0 | 1.6 | 0.00 | 0.08 | 0.08 | 99 | 1015.4 |
| 20260507101908 | 7 | 8 | 1.6 | 3.2 | 0.00 | 0.08 | 0.08 | 99 | 1015.4 |
| 20260507101403 | 7 | 3 | 0.0 | 0.0 | 0.00 | 0.08 | 0.08 | 99 | 1015.2 |
| 20260507100900 | 7 | 351 | 0.0 | 0.0 | 0.00 | 0.08 | 0.08 | 99 | 1015.2 |
| 20260507100357 | 7 | 334 | 1.6 | 1.6 | 0.00 | 0.08 | 0.08 | 99 | 1015.1 |
| 20260507095855 | 7 | 8 | 0.0 | 1.6 | 0.00 | 0.08 | 0.08 | 99 | 1015.2 |
| 20260507095352 | 7 | 3 | 0.0 | 0.0 | 0.00 | 0.08 | 0.08 | 99 | 1015.2 |
| 20260507094849 | 7 | 4 | 0.0 | 0.0 | 0.00 | 0.08 | 0.08 | 99 | 1015.1 |
| 20260507094345 | 8 | 5 | 0.0 | 0.0 | 0.00 | 0.08 | 0.08 | 99 | 1014.9 |
| 20260507093843 | 8 | 2 | 0.0 | 0.0 | 0.00 | 0.08 | 0.08 | 99 | 1015.1 |
| 20260507093341 | 8 | 2 | 0.0 | 0.0 | 0.00 | 0.08 | 0.08 | 99 | 1015.0 |
| 20260507092839 | 7 | 2 | 0.0 | 0.0 | 0.00 | 0.08 | 0.08 | 99 | 1014.8 |
| 20260507092334 | 7 | 2 | 0.0 | 0.0 | 0.00 | 0.08 | 0.08 | 99 | 1015.0 |
| 20260507091831 | 7 | 2 | 0.0 | 0.0 | 0.00 | 0.08 | 0.08 | 99 | 1015.3 |
| 20260507091328 | 7 | 2 | 0.0 | 0.0 | 0.00 | 0.08 | 0.08 | 99 | 1015.1 |
| 20260507090823 | 7 | 2 | 0.0 | 0.0 | 0.00 | 0.08 | 0.08 | 99 | 1015.3 |
| 20260507090320 | 8 | 2 | 0.0 | 0.0 | 0.00 | 0.08 | 0.08 | 99 | 1015.2 |
| 20260507085817 | 8 | 2 | 0.0 | 0.0 | 0.00 | 0.08 | 0.08 | 99 | 1015.2 |
| 20260507085314 | 8 | 2 | 0.0 | 0.0 | 0.00 | 0.08 | 0.08 | 99 | 1014.9 |
| 20260507084811 | 8 | 2 | 0.0 | 0.0 | 0.00 | 0.08 | 0.08 | 99 | 1014.9 |
| 20260507084307 | 8 | 2 | 0.0 | 0.0 | 0.00 | 0.08 | 0.08 | 99 | 1015.0 |
| 20260507083805 | 8 | 2 | 0.0 | 0.0 | 0.00 | 0.08 | 0.08 | 99 | 1014.9 |
| 20260507083301 | 8 | 2 | 0.0 | 0.0 | 0.00 | 0.08 | 0.08 | 99 | 1015.1 |
| 20260507082757 | 7 | 2 | 0.0 | 0.0 | 0.00 | 0.08 | 0.08 | 99 | 1015.1 |
| 20260507082253 | 7 | 2 | 0.0 | 0.0 | 0.00 | 0.08 | 0.08 | 99 | 1015.1 |
| 20260507081750 | 8 | 2 | 0.0 | 0.0 | 0.00 | 0.08 | 0.08 | 99 | 1015.2 |
| 20260507081246 | 8 | 3 | 0.0 | 0.0 | 0.00 | 0.08 | 0.08 | 99 | 1015.1 |
| 20260507080743 | 8 | 2 | 0.0 | 0.0 | 0.00 | 0.08 | 0.08 | 99 | 1015.2 |
| 20260507080239 | 8 | 33 | 0.0 | 0.0 | 0.00 | 0.08 | 0.08 | 99 | 1015.3 |
| 20260507075735 | 8 | 26 | 0.0 | 4.8 | 0.00 | 0.08 | 0.08 | 99 | 1015.1 |
| 20260507075231 | 8 | 357 | 0.0 | 0.0 | 0.00 | 0.08 | 0.08 | 99 | 1015.1 |
| 20260507074727 | 8 | 324 | 3.2 | 4.8 | 0.00 | 0.08 | 0.08 | 99 | 1015.1 |
| 20260507074226 | 8 | 287 | 0.0 | 0.0 | 0.18 | 0.08 | 0.08 | 99 | 1015.0 |
| 20260507073722 | 8 | 337 | 3.2 | 6.4 | 0.18 | 0.08 | 0.08 | 99 | 1015.1 |
| 20260507073219 | 8 | 284 | 3.2 | 6.4 | 0.00 | 0.05 | 0.05 | 99 | 1015.0 |
| 20260507072717 | 8 | 300 | 0.0 | 0.0 | 0.00 | 0.05 | 0.05 | 99 | 1014.9 |
| 20260507072214 | 8 | 286 | 0.0 | 0.0 | 0.00 | 0.05 | 0.05 | 99 | 1015.0 |
| 20260507071711 | 8 | 276 | 0.0 | 0.0 | 0.00 | 0.05 | 0.05 | 99 | 1015.0 |
| 20260507071207 | 8 | 285 | 1.6 | 3.2 | 0.18 | 0.05 | 0.05 | 99 | 1015.0 |
| 20260507070705 | 8 | 248 | 1.6 | 3.2 | 0.18 | 0.05 | 0.05 | 99 | 1014.9 |
| 20260507070201 | 8 | 282 | 1.6 | 3.2 | 0.00 | 0.03 | 0.03 | 99 | 1015.1 |
| 20260507065657 | 8 | 278 | 3.2 | 4.8 | 0.13 | 0.03 | 0.03 | 99 | 1015.1 |
| 20260507065155 | 8 | 307 | 0.0 | 0.0 | 0.13 | 0.03 | 0.03 | 99 | 1015.2 |
| 20260507064652 | 8 | 271 | 0.0 | 0.0 | 0.00 | 0.00 | 0.00 | 99 | 1014.9 |
| 20260507064150 | 8 | 238 | 1.6 | 4.8 | 0.00 | 0.00 | 0.00 | 99 | 1014.9 |
| 20260507063648 | 8 | 234 | 0.0 | 1.6 | 0.00 | 0.00 | 0.00 | 99 | 1014.9 |
| 20260507063144 | 8 | 232 | 0.0 | 3.2 | 0.00 | 0.00 | 0.00 | 99 | 1014.9 |
| 20260507062641 | 8 | 257 | 1.6 | 3.2 | 0.00 | 0.00 | 0.00 | 99 | 1015.0 |
| 20260507062139 | 8 | 233 | 1.6 | 3.2 | 0.00 | 0.00 | 0.00 | 99 | 1014.8 |
| 20260507061637 | 8 | 249 | 1.6 | 3.2 | 0.00 | 0.00 | 0.00 | 99 | 1014.8 |
| 20260507061134 | 8 | 243 | 0.0 | 3.2 | 0.00 | 0.00 | 0.00 | 99 | 1015.0 |
| 20260507060632 | 8 | 241 | 1.6 | 4.8 | 0.00 | 0.00 | 0.00 | 99 | 1015.3 |
| 20260507060128 | 8 | 244 | 4.8 | 4.8 | 0.00 | 0.00 | 0.00 | 99 | 1015.2 |
| 20260507055624 | 8 | 286 | 0.0 | 0.0 | 0.00 | 0.00 | 0.00 | 99 | 1015.3 |
| 20260507055120 | 8 | 286 | 0.0 | 0.0 | 0.00 | 0.00 | 0.00 | 99 | 1015.3 |
| 20260507054616 | 8 | 286 | 0.0 | 0.0 | 0.00 | 0.00 | 0.00 | 99 | 1015.5 |
| 20260507054113 | 8 | 286 | 0.0 | 0.0 | 0.00 | 0.00 | 0.00 | 99 | 1015.6 |
| 20260507053611 | 8 | 286 | 0.0 | 0.0 | 0.00 | 0.00 | 0.00 | 99 | 1015.4 |
| 20260507053110 | 8 | 286 | 0.0 | 0.0 | 0.00 | 0.00 | 0.00 | 99 | 1015.6 |
| 20260507052607 | 8 | 286 | 0.0 | 0.0 | 0.00 | 0.00 | 0.00 | 99 | 1015.6 |
| 20260507052103 | 8 | 286 | 0.0 | 0.0 | 0.00 | 0.00 | 0.00 | 99 | 1015.6 |
| 20260507051601 | 8 | 286 | 0.0 | 0.0 | 0.00 | 0.00 | 0.00 | 99 | 1015.6 |
| 20260507051058 | 8 | 286 | 0.0 | 0.0 | 0.00 | 0.00 | 0.00 | 99 | 1015.7 |
| 20260507050554 | 8 | 286 | 0.0 | 0.0 | 0.00 | 0.00 | 0.00 | 99 | 1015.8 |
| 20260507050051 | 8 | 286 | 0.0 | 0.0 | 0.00 | 0.00 | 0.00 | 99 | 1015.8 |
| 20260507045548 | 8 | 286 | 0.0 | 0.0 | 0.00 | 0.00 | 0.00 | 99 | 1015.6 |
| 20260507045045 | 8 | 286 | 0.0 | 0.0 | 0.00 | 0.00 | 0.00 | 99 | 1015.8 |
| 20260507044541 | 8 | 286 | 0.0 | 0.0 | 0.00 | 0.00 | 0.00 | 99 | 1015.6 |
| 20260507044039 | 8 | 286 | 0.0 | 0.0 | 0.00 | 0.00 | 0.00 | 99 | 1015.8 |
| 20260507043534 | 8 | 286 | 0.0 | 1.6 | 0.00 | 0.00 | 0.00 | 99 | 1015.6 |
| 20260507043032 | 8 | 286 | 0.0 | 0.0 | 0.00 | 0.00 | 0.00 | 99 | 1015.6 |
| 20260507042527 | 8 | 286 | 0.0 | 0.0 | 0.00 | 0.00 | 0.00 | 99 | 1015.5 |
| 20260507042024 | 8 | 286 | 0.0 | 0.0 | 0.00 | 0.00 | 0.00 | 99 | 1015.4 |
| 20260507041521 | 8 | 286 | 0.0 | 0.0 | 0.00 | 0.00 | 0.00 | 99 | 1015.5 |
| 20260507041017 | 8 | 286 | 0.0 | 0.0 | 0.00 | 0.00 | 0.00 | 99 | 1015.4 |
| 20260507040514 | 8 | 286 | 0.0 | 0.0 | 0.00 | 0.00 | 0.00 | 99 | 1015.5 |
| 20260507040009 | 8 | 286 | 0.0 | 0.0 | 0.00 | 1.37 | 1.37 | 99 | 1015.4 |
| 20260507035506 | 8 | 286 | 0.0 | 0.0 | 0.00 | 1.37 | 1.37 | 99 | 1015.4 |
| 20260507035002 | 8 | 286 | 0.0 | 0.0 | 0.00 | 1.37 | 1.37 | 99 | 1015.6 |
| 20260507034459 | 8 | 286 | 0.0 | 0.0 | 0.00 | 1.37 | 1.37 | 99 | 1015.6 |
| 20260507033957 | 8 | 286 | 0.0 | 0.0 | 0.00 | 1.37 | 1.37 | 99 | 1015.6 |
| 20260507033455 | 8 | 286 | 0.0 | 0.0 | 0.18 | 1.37 | 1.37 | 99 | 1015.6 |
| 20260507032952 | 8 | 286 | 0.0 | 0.0 | 0.00 | 1.35 | 1.35 | 99 | 1015.4 |
| 20260507032449 | 8 | 286 | 0.0 | 0.0 | 0.00 | 1.35 | 1.35 | 99 | 1015.5 |
| 20260507031945 | 8 | 286 | 0.0 | 0.0 | 0.00 | 1.35 | 1.35 | 99 | 1015.7 |
| 20260507031441 | 8 | 286 | 0.0 | 0.0 | 0.13 | 1.35 | 1.35 | 99 | 1015.9 |
| 20260507030938 | 8 | 286 | 0.0 | 0.0 | 0.00 | 1.32 | 1.32 | 99 | 1015.8 |
| 20260507030435 | 8 | 286 | 0.0 | 0.0 | 0.00 | 1.32 | 1.32 | 99 | 1015.9 |
| 20260507025932 | 8 | 286 | 0.0 | 0.0 | 0.00 | 1.32 | 1.32 | 99 | 1015.7 |
| 20260507025430 | 8 | 286 | 0.0 | 0.0 | 0.00 | 1.32 | 1.32 | 99 | 1015.8 |
| 20260507024928 | 8 | 286 | 0.0 | 0.0 | 0.00 | 1.32 | 1.32 | 99 | 1015.7 |
| 20260507024425 | 9 | 286 | 0.0 | 0.0 | 0.00 | 1.32 | 1.32 | 99 | 1015.1 |
| 20260507023920 | 9 | 286 | 0.0 | 0.0 | 0.00 | 1.32 | 1.32 | 99 | 1015.0 |